Regional Weather Roundup
Issued by NWS

Home | Current Version | Previous Version | Text Only | Print | Product List | Glossary On
Versions: 1 2 3 4 5 6 7 8 9 10 11 12 13 14 15 16 17 18 19 20 21 22 23 24 25 26 27 28 29 30 31 32 33 34 35 36 37 38 39 40 41 42 43 44 45 46 47 48 49 50
000
ASUS44 KOUN 011600
RWROK

WEATHER ROUNDUP FOR OKLAHOMA
NATIONAL WEATHER SERVICE NORMAN OK
1100 AM CDT FRI AUG 01 2014

NOTE: "FAIR" INDICATES FEW OR NO CLOUDS BELOW 12,000 FEET WITH NO
      SIGNIFICANT WEATHER AND/OR OBSTRUCTIONS TO VISIBILITY.

OKZ001>007-009>012-014-015-017-011700-
NORTHWEST OKLAHOMA AND THE PANHANDLE

CITY           SKY/WX    TMP DP  RH WIND       PRES   REMARKS
GAGE           SUNNY     78  61  55 NW6       30.15S
$$

OKZ016-021>023-033>039-044-045-011700-
SOUTHWEST OKLAHOMA

CITY           SKY/WX    TMP DP  RH WIND       PRES   REMARKS
LAWTON/REGL    PTSUNNY   76  65  68 N6        30.12R
LAWTON/FT SILL PTSUNNY   73  67  80 N7        30.12R
FREDERICK      PTSUNNY   77  67  71 N6        30.09F
CLINTON        SUNNY     76  59  55 CALM      30.16R
HOBART         MOSUNNY   77  64  64 N7        30.14R
ALTUS AFB      SUNNY     77  65  67 N3        30.13R
$$

OKZ018>020-024>031-011700-
CENTRAL OKLAHOMA

CITY           SKY/WX    TMP DP  RH WIND       PRES   REMARKS
OKLAHOMA CITY  PTSUNNY   77  64  64 E6        30.12S
OKC/WILEY POST MOSUNNY   76  66  71 E6        30.12R
STILLWATER     PTSUNNY   75  67  76 SE5       30.11S
GUTHRIE        PTSUNNY   74  67  78 CALM      30.12R
$$

OKZ008-013-054>072-011700-
NORTHEAST OKLAHOMA

CITY           SKY/WX    TMP DP  RH WIND       PRES   REMARKS
TULSA          PTSUNNY   75  64  68 VRB6      30.10R
TULSA/JONES    PTSUNNY   75  65  70 VRB5      30.11R
PONCA CITY     SUNNY     77  66  68 VRB6      30.10R
BARTLESVILLE   MOSUNNY   75  66  73 MISG      30.11S
MUSKOGEE       CLOUDY    76  64  66 VRB6      30.11S
$$

OKZ032-040>043-046>053-073>077-011700-
SOUTH CENTRAL/SOUTHEAST OKLAHOMA

CITY           SKY/WX    TMP DP  RH WIND       PRES   REMARKS
MCALESTER      CLOUDY    72  65  78 VRB3      30.10S
$$



USA.gov is the U.S. government's official web portal to all federal, state and local government web resources and services.